This is the latest recevied weather packets stored in our database for station/object VK5FR. If no packets are shown the sender has not sent any weather packets the latest 10 day(s).
| Time | Temp. | Humidity | Pressure | Rain* | Wind** | Luminosity | Snow |
|---|---|---|---|---|---|---|---|
| 1777727289 | 16.67° C | 71% | 1008.4 hPa | 0 mm | - | - | - |
| 1777726987 | 16.67° C | 70% | 1008.6 hPa | 0 mm | - | - | - |
| 1777726683 | 16.67° C | 69% | 1008.8 hPa | 0 mm | - | - | - |
| 1777726381 | 17.22° C | 68% | 1008.5 hPa | 0 mm | - | - | - |
| 1777726076 | 17.22° C | 70% | 1008.8 hPa | 0 mm | - | - | - |
| 1777725774 | 17.22° C | 72% | 1008.6 hPa | 0 mm | - | - | - |
| 1777725472 | 17.22° C | 72% | 1008.5 hPa | 0 mm | - | - | - |
| 1777725169 | 16.67° C | 71% | 1008.8 hPa | 0 mm | - | - | - |
| 1777724866 | 16.67° C | 71% | 1008.5 hPa | 0 mm | - | - | - |
| 1777724562 | 17.22° C | 72% | 1008.5 hPa | 0 mm | - | - | - |
| 1777724260 | 16.11° C | 79% | 1008.7 hPa | 0 mm | - | - | - |
| 1777723958 | 16.11° C | 87% | 1008.8 hPa | 0 mm | - | - | - |
| 1777723654 | 15.56° C | 87% | 1008.8 hPa | 0 mm | - | - | - |
| 1777723351 | 15.56° C | 86% | 1008.6 hPa | 0 mm | - | - | - |
| 1777723049 | 15.56° C | 86% | 1008.4 hPa | 0 mm | - | - | - |
| 1777722745 | 15.56° C | 86% | 1008.4 hPa | 0 mm | - | - | - |
| 1777722441 | 15.56° C | 86% | 1008.4 hPa | 0 mm | - | - | - |
| 1777722139 | 15.56° C | 86% | 1008.5 hPa | 0 mm | - | - | - |
| 1777721835 | 15.56° C | 85% | 1008.3 hPa | 0 mm | - | - | - |
| 1777721533 | 15.56° C | 85% | 1008.5 hPa | 0 mm | - | - | - |
| 1777721231 | 15.56° C | 85% | 1008.3 hPa | 0 mm | - | - | - |
| 1777720929 | 15.56° C | 84% | 1008.3 hPa | 0 mm | - | - | - |
| 1777720626 | 15.56° C | 85% | 1008.2 hPa | 0 mm | - | - | - |
| 1777720323 | 15.56° C | 85% | 1008.2 hPa | 0 mm | - | - | - |
| 1777720021 | 15.56° C | 85% | 1008.2 hPa | 0 mm | - | - | - |
* Rain latest hour (hover to see other rain measurements)
** Current wind speed in m/s (hover to see current wind gust speed)